EUTELSAT 7 WEST A       
1 37816U 11051A   19259.80049365 -.00000066  00000-0  00000-0 0  9997
2 37816   0.0652  14.6366 0007152 164.6676  97.0314  1.00271963 29179
BLOCK DM-SL R/B         
1 37817U 11051B   19260.10694774 -.00000063  00000-0  00000+0 0  9999
2 37817   0.9401  22.1708 6815400  89.4590 117.0857  2.20340587 64214